FENGYUN 1C DEB

Satellite information

Favourite Embed

Satellite Type and Status

DEBRISIN ORBIT

Key statistics

Satellite FENGYUN 1C DEB at a glance.

Uptime

9659

Days in orbit

Revolutions

≈ 14.3

Per day

Orbit

SSO

Sun Synchronous Orbit

Inclination

101.0

Latest

Satellite identification and parameters

Extended collection of information and parameters for FENGYUN 1C DEB.

Object identification

Identified? True

Debris? True

Object name: FENGYUN 1C DEB

International designator: 1999-025AND

Object number (NORAD): 30622

Object ID (CCSDS): 30622

Country: PEOPLES REPUBLIC OF CHINA (PRC)

Current information (Y/N): Y

RCS size: SMALL

Orbital parameters

Period: 100.708 minutes

Inclination: 101.0029 deg

SMA: 7170.287 km

Apoapsis: 844.78 km

Periapsis: 739.524 km

RAAN: 287.8507 deg

Eccentricy: 0.00733973

Argument of periapsis: 165.7988 deg

Mean anomaly: 224.9698 deg

Mean motion: 14.2987451 rev/day

Mean motion (dot): 0.00012393 rev/day2

B* drag term: 0.0046916582 1/REarth

Two-line elements (TLE)

Creation date: Oct. 18, 2025, 2:17 a.m.

Reference frame: TEME

Reference center: EARTH

Epoch: Oct. 17, 2025, 10:45 p.m. UTC

TLE line 0: 0 FENGYUN 1C DEB

TLE line 1: 1 30622U 99025AND 25290.94826304 .00012393 00000-0 46917-2 0 9999

TLE line 2: 2 30622 101.0029 287.8507 0073397 165.7988 224.9698 14.29874510680003

Live tracking on map

Real-time ground track for satellite FENGYUN 1C DEB.

In-orbit conjunctions

A list of the most updated potential collisions computed for object FENGYUN 1C DEB.

Target Orbit TCA Probability of collision Miss distance Type
SL-8 R/B LEO 2025-05-18 22:20:49 0.0003638916 21.0 (m) ROCKET BODY
RADCAL LEO 2025-01-30 04:28:21 0.0001979746 671.0 (m) PAYLOAD
DELTA 1 DEB SSO 2024-09-24 16:04:24 0.0002554456 253.0 (m) DEBRIS
METEOR 1-16 LEO 2024-09-11 00:30:40 0.0001079578 173.0 (m) PAYLOAD
FENGYUN 1C DEB SSO 2024-07-11 13:21:31 0.0001172035 226.0 (m) DEBRIS

Associated space launch

Chinese polar orbiting meteorological satellite

FENGYUN 1C DEB was lifted into orbit during the mission ‘Long March 4B | Feng Yun 1C’, on board a Long March 4B space rocket.

The launch took place on May 10, 1999, 1:33 a.m. from Launch Complex 7.

For more information about the launch, click the button.

Launch to space Long March 4B | Feng Yun 1C
Long March 4B | Feng Yun 1C

Agency: N/A

Status: Launch Successful

Launch date: May 10, 1999, 1:33 a.m. UTC

Rocket: Long March 4B

Launch pad: Launch Complex 7

Location: Taiyuan Satellite Launch Center, People's Republic of China

...

Latest news about this satellite

There are no fresh news available about this satellite. Check back as we update our databases every day.


Newsletter sign-up

Weekly statistics, charts and insights to help you stay on top of the space industry.